Loveland (283, 1166, DV1, 6914, 625) Station Data

Red Flag Warning: No
Fire Weather Zone: 250
SDGE Region: Eastern
Lat/Lon: 32.808/-116.788

Observations

Time Wind Speed/Gust Temp(F) RH Fuel Moist Fuel Temp(F) Dewpt(F) Tmax(F) Tmin(F) Accum Precip 10-min Precip SL Press(mb)
4/26 2:40am 53 0 G 1 54° 71% - - 45° 55.1° 52.8° - - 883.0
4/26 2:30am 47 0 G 1 54° 71% - - 45° 55.1° 52.8° - - 883.0
4/26 2:20am 129 1 G 3 54° 70% - - 45° 55.1° 52.8° - - 883.0
4/26 2:10am 189 2 G 4 55° 70% - - 45° 55.1° 52.8° - - 883.0
4/26 2:00am 184 1 G 2 54° 71% - - 45° 55.1° 52.8° - - 883.0
4/26 1:50am 8 2 G 4 53° 73% - - 45° 55.1° 52.8° - - 884.0
4/26 1:40am 32 3 G 4 53° 73% - - 45° 55.1° 52.8° - - 884.0
4/26 1:30am 58 1 G 3 54° 71% - - 45° 55.1° 53.3° - - 883.0
4/26 1:20am 124 1 G 4 55° 70% - - 45° 55.1° 53.3° - - 883.0
4/26 1:10am 81 1 G 4 54° 71% - - 45° 55.1° 53.3° - - 883.0
4/26 1:00am 19 4 G 5 54° 72% - - 45° 55.1° 53.3° - - 883.0
4/26 12:50am 41 4 G 6 54° 71% - - 45° 55.1° 53.3° - - 883.0
4/26 12:40am 46 3 G 5 54° 71% - - 45° 55.1° 53.3° - - 883.0
4/26 12:30am 45 4 G 5 54° 70% - - 45° 55.1° 53.4° - - 882.0
4/26 12:20am 34 2 G 4 55° 68% - - 45° 55.1° 54° - - 882.0
4/26 12:10am 28 3 G 4 54° 69% - - 45° 54.7° 54° - - 882.0
4/26 12:00am 18 3 G 4 54° 71% - - 44° 64° 51.8° - - 883.0
4/25 11:50pm 34 5 G 8 53° 72% - - 44° 64° 51.8° - - 883.0
4/25 11:40pm 46 7 G 9 53° 72% - - 44° 64° 51.8° - - 883.0
4/25 11:30pm 45 6 G 7 53° 72% - - 44° 64° 51.8° - - 883.0
4/25 11:20pm 42 6 G 7 53° 72% - - 44° 64° 51.8° - - 883.0
4/25 11:10pm 47 5 G 7 53° 72% - - 44° 64° 51.8° - - 883.0
4/25 11:00pm 48 5 G 6 53° 72% - - 44° 64° 51.8° - - 883.0
4/25 10:50pm 51 5 G 7 53° 71% - - 44° 64° 51.8° - - 883.0
4/25 10:40pm 49 4 G 6 54° 69% - - 44° 64° 51.8° - - 882.0
4/25 10:30pm 47 3 G 4 54° 69% - - 44° 64° 51.8° - - 882.0
4/25 10:20pm 57 2 G 4 54° 68% - - 44° 64° 51.8° - - 882.0
4/25 10:10pm 70 2 G 3 55° 67% - - 44° 64° 51.8° - - 882.0
4/25 10:00pm 99 1 G 3 55° 66% - - 44° 64° 51.8° - - 881.0
4/25 9:50pm 218 0 G 1 55° 65% - - 44° 64° 51.8° - - 881.0
4/25 9:40pm 268 2 G 3 55° 65% - - 44° 64° 51.8° - - 881.0
4/25 9:30pm 260 2 G 4 55° 65% - - 44° 64° 51.8° - - 881.0
4/25 9:20pm 280 3 G 5 55° 66% - - 44° 64° 51.8° - - 881.0
4/25 9:10pm 287 3 G 5 55° 66% - - 44° 64° 51.8° - - 881.0
4/25 9:00pm 282 2 G 4 55° 66% - - 44° 64° 51.8° - - 881.0
4/25 8:50pm 285 4 G 6 55° 65% - - 44° 64° 51.8° - - 881.0
4/25 8:40pm 287 3 G 5 55° 66% - - 44° 64° 51.8° - - 881.0
4/25 8:30pm 286 3 G 5 55° 65% - - 44° 64° 51.8° - - 881.0
4/25 8:20pm 279 3 G 5 55° 65% - - 44° 64° 51.8° - - 881.0
4/25 8:10pm 277 3 G 5 56° 64% - - 44° 64° 51.8° - - 881.0
4/25 8:00pm 268 2 G 4 56° 64% - - 44° 64° 51.8° - - 881.0
4/25 7:50pm 275 3 G 4 56° 64% - - 44° 64° 51.8° - - 881.0
4/25 7:40pm 262 2 G 4 56° 64% - - 44° 64° 51.8° - - 881.0
4/25 7:30pm 243 2 G 4 56° 63% - - 44° 64° 51.8° - - 880.0
4/25 7:20pm 248 3 G 6 57° 62% - - 44° 64° 51.8° - - 880.0
4/25 7:10pm 241 2 G 6 57° 61% - - 44° 64° 51.8° - - 880.0
4/25 7:00pm 249 4 G 8 58° 60% - - 44° 64° 51.8° - - 880.0
4/25 6:50pm 244 5 G 9 58° 60% - - 44° 64° 51.8° - - 880.0
4/25 6:40pm 248 6 G 10 58° 60% - - 45° 64° 51.8° - - 880.0
4/25 6:30pm 241 6 G 12 59° 59% - - 45° 64° 51.8° - - 880.0
4/25 6:20pm 233 6 G 10 59° 60% - - 45° 64° 51.8° - - 880.0
4/25 6:10pm 237 6 G 10 59° 60% - - 46° 64° 51.8° - - 880.0
4/25 6:00pm 229 6 G 12 60° 62% - - 47° 64° 51.8° - - 881.0
4/25 5:50pm 224 8 G 13 59° 65% - - 48° 64° 51.8° - - 883.0
4/25 5:40pm 230 8 G 16 60° 66% - - 48° 64° 51.8° - - 883.0
4/25 5:30pm 230 8 G 16 60° 65% - - 48° 64° 51.8° - - 883.0
4/25 5:20pm 223 9 G 14 60° 66% - - 49° 64° 51.8° - - 883.0
4/25 5:10pm 225 10 G 15 60° 67% - - 49° 64° 51.8° - - 884.0
4/25 5:00pm 231 9 G 14 61° 64% - - 48° 64° 51.8° - - 882.0
4/25 4:50pm 231 8 G 16 61° 63% - - 48° 64° 51.8° - - 882.0
4/25 4:40pm 228 8 G 14 61° 63% - - 49° 64° 51.8° - - 882.0
4/25 4:30pm 226 9 G 14 61° 63% - - 49° 64° 51.8° - - 882.0
4/25 4:20pm 231 7 G 12 62° 60% - - 48° 64° 51.8° - - 881.0
4/25 4:10pm 236 7 G 17 62° 59% - - 48° 64° 51.8° - - 881.0
4/25 4:00pm 243 9 G 15 62° 59% - - 48° 64° 51.8° - - 881.0
4/25 3:50pm 231 9 G 15 62° 61% - - 48° 64° 51.8° - - 882.0
4/25 3:40pm 230 9 G 15 62° 61% - - 48° 64° 51.8° - - 881.0
4/25 3:30pm 236 8 G 13 62° 61% - - 48° 64° 51.8° - - 881.0
4/25 3:20pm 236 8 G 14 62° 62% - - 49° 64° 51.8° - - 882.0
4/25 3:10pm 239 8 G 15 62° 63% - - 49° 64° 51.8° - - 882.0
4/25 3:00pm 230 11 G 16 62° 63% - - 49° 64° 51.8° - - 882.0
4/25 2:50pm 229 9 G 17 62° 63% - - 49° 64° 51.8° - - 882.0
4/25 2:40pm 233 9 G 16 62° 63% - - 49° 64° 51.8° - - 882.0
4/25 2:30pm 212 9 G 19 62° 62% - - 49° 64° 51.8° - - 882.0
4/25 2:20pm 220 10 G 17 63° 60% - - 48° 64° 51.8° - - 881.0
4/25 2:10pm 222 9 G 16 63° 57% - - 48° 64° 51.8° - - 880.0
4/25 2:00pm 224 8 G 16 63° 57% - - 48° 64° 51.8° - - 880.0
4/25 1:50pm 231 8 G 15 63° 58% - - 48° 64° 51.8° - - 881.0
4/25 1:40pm 231 8 G 15 63° 57% - - 48° 64° 51.8° - - 880.0
4/25 1:30pm 229 9 G 15 63° 57% - - 48° 64° 51.8° - - 880.0
4/25 1:20pm 220 10 G 17 62° 61% - - 48° 63.7° 51.8° - - 881.0
4/25 1:10pm 221 8 G 13 62° 61% - - 49° 63.7° 51.8° - - 882.0
4/25 1:00pm 225 9 G 17 62° 60% - - 48° 63.7° 51.8° - - 881.0
4/25 12:50pm 233 8 G 13 63° 58% - - 48° 63.7° 51.8° - - 880.0
4/25 12:40pm 239 7 G 15 62° 58% - - 47° 63.6° 51.8° - - 880.0
4/25 12:30pm 241 7 G 15 62° 56% - - 46° 63.6° 51.8° - - 879.0
4/25 12:20pm 225 7 G 14 63° 55% - - 47° 63.6° 51.8° - - 879.0
4/25 12:10pm 224 8 G 16 63° 57% - - 47° 63.6° 51.8° - - 880.0
4/25 12:00pm 236 7 G 15 63° 56% - - 46° 63.6° 51.8° - - 879.0
4/25 11:50am 243 8 G 18 62° 55% - - 46° 63.2° 51.8° - - 879.0
4/25 11:40am 230 9 G 15 62° 57% - - 47° 63.2° 51.8° - - 880.0
4/25 11:30am 233 7 G 14 62° 57% - - 47° 63.2° 51.8° - - 880.0
4/25 11:20am 227 7 G 14 62° 57% - - 47° 63.2° 51.8° - - 880.0
4/25 11:10am 233 6 G 12 62° 57% - - 47° 63° 51.8° - - 880.0
4/25 11:00am 227 8 G 12 61° 60% - - 47° 62.5° 51.8° - - 881.0
4/25 10:50am 237 8 G 13 60° 63% - - 47° 62.5° 51.8° - - 882.0
4/25 10:40am 224 5 G 11 61° 61% - - 47° 62.5° 51.8° - - 881.0
4/25 10:30am 221 6 G 10 59° 62% - - 46° 60.8° 51.8° - - 881.0
4/25 10:20am 244 4 G 9 60° 62% - - 46° 60.6° 51.8° - - 881.0
4/25 10:10am 228 5 G 10 60° 64% - - 48° 60.3° 51.8° - - 882.0
4/25 10:00am 234 4 G 9 59° 65% - - 47° 59.5° 51.8° - - 882.0
4/25 9:50am 229 5 G 9 57° 70% - - 48° 58.6° 51.8° - - 884.0
4/25 9:40am 237 7 G 11 57° 73% - - 48° 58.5° 51.8° - - 885.0
4/25 9:30am 238 5 G 10 57° 70% - - 48° 58.5° 51.8° - - 884.0
4/25 9:20am 247 6 G 9 58° 70% - - 48° 58.5° 51.8° - - 884.0
4/25 9:10am 229 5 G 9 57° 71% - - 48° 58° 51.8° - - 884.0
4/25 9:00am 234 6 G 9 56° 74% - - 48° 57.1° 51.8° - - 885.0
4/25 8:50am 243 5 G 10 57° 74% - - 49° 57.1° 51.8° - - 885.0
4/25 8:40am 219 5 G 9 56° 78% - - 49° 56.7° 51.8° - - 887.0
4/25 8:30am 239 5 G 10 55° 83% - - 50° 56° 51.8° - - 889.0
4/25 8:20am 251 4 G 7 54° 87% - - 51° 55.3° 51.8° - - 890.0
4/25 8:10am 239 4 G 7 55° 87% - - 51° 55.3° 51.8° - - 890.0
4/25 8:00am 249 2 G 5 55° 86% - - 51° 55.3° 51.8° - - 890.0
4/25 7:50am 241 2 G 4 55° 94% - - 53° 55.1° 51.8° - - 894.0
4/25 7:40am 240 2 G 4 54° 100% - - 54° 54.4° 51.8° - - 899.0
4/25 7:30am 252 3 G 6 53° 100% - - 53° 53.6° 51.8° - - 899.0
4/25 7:20am 238 3 G 5 53° 100% - - 53° 53.6° 51.8° - - 900.0
4/25 7:10am 241 2 G 4 52° 100% - - 52° 53.3° 51.8° - - 902.0
4/25 7:00am 238 5 G 8 52° 100% - - 52° 53.3° 51.8° - - 902.0
4/25 6:50am 230 4 G 6 52° 100% - - 52° 53.3° 51.8° - - 902.0
4/25 6:40am 250 4 G 7 52° 100% - - 52° 53.3° 51.8° - - 901.0
4/25 6:30am 247 4 G 7 52° 100% - - 52° 53.3° 51.8° - - 900.0
4/25 6:20am 246 4 G 7 52° 100% - - 52° 53.3° 51.8° - - 899.0
4/25 6:10am 250 3 G 5 52° 100% - - 52° 53.3° 51.8° - - 898.0
4/25 6:00am 256 4 G 6 53° 100% - - 53° 53.3° 51.8° - - 896.0
4/25 5:50am 233 3 G 5 52° 100% - - 52° 53.3° 51.8° - - 898.0
4/25 5:40am 247 3 G 5 52° 100% - - 52° 53.3° 51.8° - - 897.0
4/25 5:30am 226 2 G 5 52° 100% - - 52° 53.3° 51.8° - - 898.0
4/25 5:20am 204 3 G 6 52° 100% - - 52° 53.3° 51.8° - - 898.0
4/25 5:10am 269 3 G 5 52° 100% - - 52° 53.3° 51.9° - - 897.0
4/25 5:00am 245 3 G 5 52° 100% - - 52° 53.3° 51.9° - - 897.0
4/25 4:50am 233 3 G 5 52° 99% - - 52° 53.3° 51.9° - - 894.0
4/25 4:40am 172 2 G 3 53° 96% - - 52° 53.3° 51.9° - - 893.0
4/25 4:30am 145 2 G 4 53° 98% - - 52° 53.3° 51.9° - - 894.0
4/25 4:20am 154 2 G 4 53° 98% - - 52° 53.3° 51.9° - - 894.0
4/25 4:10am 177 3 G 5 52° 97% - - 52° 53.3° 51.9° - - 894.0
4/25 4:00am 185 5 G 9 52° 97% - - 52° 53.3° 51.9° - - 894.0
4/25 3:50am 178 3 G 7 52° 99% - - 52° 53.3° 51.9° - - 895.0
4/25 3:40am 183 4 G 7 52° 100% - - 53° 53.3° 51.9° - - 896.0
4/25 3:30am 199 5 G 7 53° 100% - - 53° 53.3° 51.9° - - 897.0
4/25 3:20am 208 7 G 12 52° 100% - - 52° 53.3° 51.9° - - 899.0
4/25 3:10am 203 9 G 13 52° 100% - - 52° 53.3° 51.9° - - 900.0
4/25 3:00am 210 10 G 15 52° 100% - - 52° 53.3° 51.9° - - 901.0
4/25 2:50am 214 10 G 15 52° 100% - - 52° 53.3° 51.9° - - 901.0
4/25 2:40am 217 8 G 13 53° 100% - - 53° 53.3° 51.9° - - 900.0
4/25 2:30am 225 7 G 10 53° 100% - - 53° 53.3° 51.9° - - 897.0
4/25 2:20am 224 6 G 10 53° 98% - - 52° 53.3° 51.9° - - 894.0
4/25 2:10am 221 5 G 8 53° 93% - - 51° 53.3° 51.9° - - 892.0
4/25 2:00am 233 5 G 7 53° 90% - - 50° 53.3° 51.9° - - 891.0
4/25 1:50am 212 5 G 8 53° 87% - - 49° 53.3° 51.9° - - 890.0
4/25 1:40am 193 7 G 9 53° 86% - - 49° 53.3° 51.9° - - 889.0
4/25 1:30am 187 5 G 7 53° 88% - - 49° 53.1° 51.9° - - 890.0
4/25 1:20am 201 3 G 7 53° 89% - - 50° 53.1° 51.9° - - 891.0
4/25 1:10am 189 6 G 9 53° 93% - - 51° 53° 51.9° - - 892.0
4/25 1:00am 189 7 G 10 53° 92% - - 50° 53° 51.9° - - 892.0
4/25 12:50am 188 7 G 11 53° 90% - - 50° 53° 51.9° - - 891.0
4/25 12:40am 197 6 G 11 53° 88% - - 49° 53° 51.9° - - 890.0
4/25 12:30am 205 8 G 13 53° 93% - - 51° 52.9° 51.9° - - 893.0
4/25 12:20am 203 7 G 13 52° 100% - - 52° 52.6° 51.9° - - 900.0
4/25 12:10am 213 8 G 12 52° 100% - - 52° 52.6° 51.9° - - 902.0
4/25 12:00am 210 7 G 13 53° 100% - - 53° 67° 48.5° - - 898.0
4/24 11:50pm 226 7 G 14 53° 94% - - 51° 67° 48.5° - - 892.0
4/24 11:40pm 232 4 G 7 53° 91% - - 50° 67° 48.5° - - 891.0
4/24 11:30pm 230 4 G 7 53° 91% - - 51° 67° 48.5° - - 892.0
4/24 11:20pm 234 5 G 10 53° 94% - - 51° 67° 48.5° - - 893.0
4/24 11:10pm 226 7 G 12 53° 95% - - 52° 67° 48.5° - - 894.0
4/24 11:00pm 224 7 G 12 53° 100% - - 53° 67° 48.5° - - 898.0
4/24 10:50pm 217 8 G 14 53° 100% - - 53° 67° 48.5° - - 898.0
4/24 10:40pm 224 8 G 14 53° 100% - - 53° 67° 48.5° - - 900.0
4/24 10:30pm 223 7 G 10 53° 100% - - 53° 67° 48.5° - - 903.0
4/24 10:20pm 219 6 G 9 53° 100% - - 53° 67° 48.5° - - 904.0
4/24 10:10pm 221 4 G 6 53° 100% - - 53° 67° 48.5° - - 904.0
4/24 10:00pm 231 3 G 5 53° 100% - - 53° 67° 48.5° - - 904.0
4/24 9:50pm 234 3 G 5 53° 100% - - 53° 67° 48.5° - - 904.0
4/24 9:40pm 255 3 G 5 53° 100% - - 53° 67° 48.5° - - 904.0
4/24 9:30pm 250 4 G 7 53° 100% - - 53° 67° 48.5° - - 903.0
4/24 9:20pm 240 4 G 5 53° 100% - - 53° 67° 48.5° - - 903.0
4/24 9:10pm 238 4 G 6 54° 100% - - 54° 67° 48.5° - - 902.0
4/24 9:00pm 241 5 G 8 54° 100% - - 54° 67° 48.5° - - 901.0
4/24 8:50pm 253 4 G 8 54° 100% - - 54° 67° 48.5° - - 901.0
4/24 8:40pm 240 5 G 8 54° 100% - - 54° 67° 48.5° - - 901.0
4/24 8:30pm 248 5 G 9 54° 100% - - 54° 67° 48.5° - - 902.0
4/24 8:20pm 246 7 G 10 54° 100% - - 54° 67° 48.5° - - 901.0
4/24 8:10pm 242 7 G 10 54° 100% - - 54° 67° 48.5° - - 900.0
4/24 8:00pm 245 7 G 9 54° 100% - - 54° 67° 48.5° - - 899.0
4/24 7:50pm 244 5 G 9 54° 100% - - 54° 67° 48.5° - - 897.0
4/24 7:40pm 233 5 G 8 54° 96% - - 53° 67° 48.5° - - 894.0
4/24 7:30pm 229 7 G 9 55° 90% - - 52° 67° 48.5° - - 891.0
4/24 7:20pm 231 7 G 10 55° 84% - - 51° 67° 48.5° - - 889.0
4/24 7:10pm 240 7 G 11 56° 81% - - 50° 67° 48.5° - - 888.0
4/24 7:00pm 235 8 G 11 57° 79% - - 50° 67° 48.5° - - 888.0
4/24 6:50pm 234 8 G 12 57° 78% - - 50° 67° 48.5° - - 887.0
4/24 6:40pm 237 6 G 10 57° 77% - - 50° 67° 48.5° - - 887.0
4/24 6:30pm 231 6 G 9 58° 77% - - 50° 67° 48.5° - - 887.0
4/24 6:20pm 239 7 G 11 58° 75% - - 50° 67° 48.5° - - 887.0
4/24 6:10pm 238 7 G 11 59° 73% - - 50° 67° 48.5° - - 886.0
4/24 6:00pm 238 7 G 10 59° 72% - - 50° 67° 48.5° - - 886.0